SCP
0 0 0 0 0 0 0 0 0 0 0 0 0 0 0 0 0 0 0 0 1 0 0 1 0 0 0 0 0 0 0 0 0 0 0 0 0 0 -0 -0 0 -0 -0
0 0 0 0 0 0 0 0 0 0 0 0 0 0 0 0 0 0 0 0 0 0 1 1 1 1 0 0 0 0 0 0 0 0 0 -0 0 -0 -0 -0 0 0 -0
0 0 0 0 0 0 0 0 0 0 0 0 0 0 0 0 0 0 0 0 0 0 1 1 1 1 1 0 0 0 0 0 0 0 0 0 -0 -0 -0 0 0 0 0
1 1 0 0 0 0 0 0 0 0 0 0 0 0 0 0 0 0 0 0 0 0 0 1 1 0 0 1 0 0 0 0 0 0 0 0 -0 -0 -0 -0 0 0 0
1 1 1 1 1 0 0 0 0 0 0 0 0 0 0 0 0 0 0 0 0 0 0 0 0 0 0 0 0 0 0 0 0 0 0 0 0 -0 -0 0 0 0 0
2 1 1 1 1 1 0 0 0 0 0 0 0 0 0 0 0 0 0 0 0 0 0 0 0 0 0 0 0 0 0 0 0 0 0 0 0 0 0 0 0 0 0
1 1 1 1 1 1 1 0 0 0 0 0 0 0 0 0 0 0 0 0 0 0 0 0 0 0 0 0 0 0 0 0 0 0 0 0 0 0 0 -0 -0 0 0
1 2 2 1 1 1 1 0 0 0 0 0 0 0 0 0 0 0 0 0 0 0 0 0 0 0 0 0 0 0 0 0 0 0 0 0 0 0 0 -0 0 0 0
6 0 1 2 2 1 1 0 0 0 0 0 0 0 0 0 0 0 1 -0 0 0 0 0 0 0 0 0 0 0 0 0 0 0 0 0 0 0 0 0 0 0 0
0 5 1 1 1 1 1 1 0 0 0 0 0 1 0 0 1 0 0 0 0 0 0 0 0 0 0 0 0 0 0 0 0 0 0 0 0 0 0 0 0 0 0
0 3 1 1 1 1 1 1 1 1 1 1 0 1 1 0 0 1 0 -0 0 0 0 0 0 0 0 0 0 0 0 0 0 0 0 0 0 0 0 -0 -0 -0 0
0 0 1 2 0 0 1 1 1 0 1 1 1 1 0 0 0 1 1 0 0 0 0 0 0 0 0 0 0 0 0 0 0 0 0 0 0 0 0 -0 -0 -0 0
0 0 1 1 1 2 1 1 0 0 1 1 2 1 1 0 0 1 1 1 0 0 0 0 0 0 0 0 0 0 0 0 0 0 0 0 0 0 0 0 -0 -0 -0
0 0 0 0 1 1 3 3 2 1 1 1 2 2 2 2 1 1 1 1 0 0 0 0 0 0 0 0 0 0 0 0 0 0 0 0 0 0 0 0 0 0 0
0 0 0 0 0 1 1 2 3 3 4 2 2 1 1 2 2 1 1 0 0 0 0 0 0 0 0 0 0 0 0 0 0 0 0 0 0 0 0 0 0 0 0
0 0 0 0 0 0 0 0 1 2 2 3 4 2 2 2 0 1 0 0 0 0 0 0 0 0 0 0 0 0 0 0 0 0 0 0 0 0 0 0 0 0 0
0 0 0 0 0 0 0 0 0 0 1 2 3 3 2 1 0 0 0 1 0 0 0 0 0 0 0 0 0 0 0 0 0 0 0 0 0 0 0 0 0 0 0
0 0 0 0 0 0 0 0 0 0 0 0 0 1 1 1 0 0 0 0 0 0 0 0 0 0 0 0 0 0 0 0 0 0 0 0 0 0 0 0 0 0 0
0 0 0 0 0 0 0 0 0 0 0 0 0 0 0 1 0 0 0 0 0 0 0 0 0 0 0 0 0 0 0 0 0 0 0 0 0 0 0 0 0 0 0
0 0 0 0 0 0 0 0 0 0 0 0 0 0 0 1 0 0 1 0 0 0 0 0 0 0 0 0 0 0 0 0 0 0 0 0 0 0 0 0 0 0 0
0 0 0 0 0 0 0 0 0 0 0 0 0 0 0 0 0 0 1 0 0 0 0 0 0 0 0 0 0 0 0 0 0 0 0 0 0 0 0 0 0 0 0
0 0 0 0 0 0 0 0 0 0 0 0 0 0 1 1 1 0 1 0 0 0 0 0 0 0 0 0 0 0 0 0 0 0 0 0 0 0 0 0 0 0 0
0 0 0 0 0 0 -0 -0 0 -0 -0 -0 0 0 1 2 1 0 0 0 0 0 0 0 0 0 0 0 0 0 0 0 0 0 0 0 0 0 0 0 0 0 0
0 0 0 0 0 0 -0 -0 -0 0 -0 -0 -0 0 0 1 0 0 0 0 0 0 0 0 0 0 0 0 0 0 0 0 0 0 0 0 0 0 0 0 0 0 0
0 0 0 0 0 0 -0 -0 -0 -0 -0 -0 -0 0 0 0 0 0 0 0 0 0 0 0 0 0 0 0 0 0 0 0 0 0 0 0 0 0 0 0 0 0 0
0 0 0 0 0 0 0 -0 -0 -0 -0 -0 -0 0 0 0 0 0 0 0 0 0 0 0 0 0 0 0 0 0 0 0 0 0 0 0 0 0 0 0 0 0 0
Wind_Speed_500mb
46 42 39 35 29 22 16 18 17 17 17 19 21 23 24 25 25 25 27 32 38 39 37 29 30 30 30 23 25 30 28 26 24 24 25 25 31 37 39 36 32 32 33
47 45 42 41 34 26 21 23 26 27 26 25 26 26 26 28 25 24 24 27 29 33 35 34 31 26 26 25 24 30 31 30 28 27 30 31 30 33 35 37 35 35 35
48 46 44 47 40 33 29 31 33 34 36 32 35 35 35 31 28 24 24 29 31 32 29 32 34 28 26 25 27 27 32 33 33 30 34 33 34 32 33 35 36 36 36
33 35 37 38 37 38 39 38 41 45 46 41 43 38 37 32 28 29 29 31 34 38 31 28 25 21 21 24 25 30 31 30 31 31 32 36 33 35 35 37 38 37 35
41 38 34 33 32 39 45 44 43 45 46 44 43 37 36 36 30 33 38 36 37 41 39 28 18 17 24 24 26 28 28 28 26 30 31 36 35 37 34 37 39 38 37
40 41 40 39 37 44 47 50 50 47 50 49 47 42 39 35 35 34 41 42 35 42 50 30 30 31 28 23 24 29 33 28 28 28 30 34 35 36 36 37 39 40 38
42 41 47 45 45 50 48 48 57 57 55 52 50 48 41 36 32 23 19 27 33 39 50 37 37 38 36 36 32 32 32 31 34 30 29 34 34 35 38 37 39 40 40
55 48 51 49 52 56 53 53 54 58 56 51 45 43 41 44 28 28 33 23 27 34 43 40 42 41 38 33 33 31 38 35 32 31 28 32 35 37 38 38 40 41 42
34 26 43 46 42 44 42 39 49 49 53 53 52 41 19 15 38 46 39 28 41 42 40 36 42 40 38 35 34 34 32 31 23 29 30 28 37 39 38 38 40 41 43
45 41 53 52 58 53 45 35 38 37 40 53 49 53 47 44 29 35 36 50 48 39 44 47 47 42 38 39 36 34 32 27 22 26 31 29 32 38 38 40 40 41 43
82 94 74 64 60 53 55 41 35 38 31 39 43 52 48 49 41 47 66 60 62 53 46 48 46 53 44 44 42 34 34 27 24 29 31 31 29 35 40 40 42 41 44
74 83 103 103 81 68 68 59 54 54 51 50 42 40 45 38 34 48 39 53 54 61 57 52 46 52 50 45 44 37 33 32 29 29 33 32 30 34 40 42 42 44 46
67 66 59 59 69 75 69 62 71 76 57 57 50 45 48 48 50 55 52 51 50 63 64 62 55 47 49 46 43 38 32 35 30 30 36 37 33 33 40 41 42 44 46
54 61 64 73 87 72 75 69 72 78 69 62 58 58 58 61 53 61 59 45 57 77 77 71 61 43 45 48 45 39 35 35 33 33 32 34 34 35 40 41 37 42 45
45 51 51 51 52 65 87 93 75 73 87 81 61 61 72 69 63 73 70 64 63 62 72 62 60 44 39 48 47 43 37 35 34 31 24 24 27 33 36 39 37 37 42
47 44 46 50 50 49 54 54 73 82 78 76 81 74 67 63 64 79 69 55 71 63 69 59 51 38 37 48 47 44 38 35 33 30 27 22 21 25 32 37 38 38 41
44 50 47 47 50 51 59 66 68 67 65 65 67 75 72 70 78 84 91 94 71 64 68 69 48 40 38 45 47 42 38 36 32 28 27 28 26 26 29 36 38 36 39
39 41 47 50 49 49 46 50 54 56 64 69 66 72 70 67 73 77 86 89 68 60 62 64 50 44 41 44 42 38 37 38 31 27 27 27 27 30 34 31 40 43 38
47 46 45 48 52 51 56 59 58 54 55 57 64 67 74 65 69 75 83 70 61 54 60 58 46 47 44 45 43 37 35 36 31 28 31 28 25 27 34 31 31 39 40
57 59 53 49 53 58 57 56 59 62 60 56 58 76 75 70 69 86 71 74 62 56 57 55 46 46 45 46 41 36 33 32 31 28 26 29 29 28 32 36 33 36 39
67 66 63 61 58 60 66 63 63 56 60 56 53 59 71 74 79 82 71 69 55 54 53 53 46 49 47 48 46 34 30 27 27 24 24 23 25 29 32 38 39 38 38
76 73 73 68 67 70 61 62 64 59 59 67 61 54 64 67 76 68 62 57 51 54 53 52 46 48 50 46 37 34 33 26 24 26 26 26 24 24 30 33 35 38 39
83 83 83 80 79 74 70 65 64 70 62 74 68 59 55 59 59 57 54 48 44 41 46 45 49 46 42 41 37 37 38 32 26 25 24 24 28 21 24 30 33 38 40
92 91 94 91 86 81 83 77 73 67 69 71 75 65 56 61 58 52 51 46 50 44 49 43 39 34 34 35 33 31 30 31 34 32 30 32 31 30 26 27 32 36 39
103 103 101 95 91 84 82 81 74 68 69 73 70 69 57 56 53 47 46 44 57 50 42 40 37 34 33 33 29 28 31 31 37 40 37 37 32 31 33 32 32 29 31
106 110 109 105 96 88 86 85 77 68 69 74 72 61 56 50 48 49 54 58 63 50 46 42 40 34 35 36 36 34 31 32 34 32 32 35 29 21 18 30 34 30 26
Wind_Direction_500mb
225 232 238 242 242 245 258 275 280 285 303 309 311 316 330 333 342 338 333 322 305 294 290 287 290 299 310 293 265 259 261 262 262 253 254 256 242 237 241 242 237 234 234
233 235 241 246 249 251 260 271 282 287 289 291 298 311 322 323 329 336 331 327 319 295 287 286 285 287 300 309 279 262 264 266 264 253 252 254 251 243 241 238 235 235 238
238 237 243 249 253 253 257 265 272 283 285 290 299 308 311 314 315 314 320 316 321 312 306 287 279 272 289 298 303 283 270 272 266 262 253 254 252 247 243 237 235 239 241
230 234 237 246 251 252 256 262 265 271 278 288 293 304 300 294 306 312 310 314 311 315 308 299 277 267 287 297 288 297 291 280 273 269 256 249 253 251 244 238 237 241 238
236 237 243 250 255 255 254 255 255 260 266 272 278 283 285 292 303 309 310 310 309 306 309 296 283 281 285 299 301 292 287 283 275 277 259 249 253 252 243 239 236 237 234
233 235 244 252 253 262 263 259 260 261 268 274 279 280 284 296 304 313 314 308 301 305 301 294 278 277 281 284 299 294 292 278 283 282 267 254 251 252 243 238 234 233 232
240 242 242 248 253 260 262 262 260 259 264 273 284 281 283 286 307 316 328 318 301 303 298 295 278 282 282 276 279 283 288 283 273 271 276 259 249 251 241 236 233 232 230
245 245 247 249 272 270 266 260 257 255 264 269 272 288 294 295 302 308 311 320 321 302 300 293 281 290 286 282 281 282 286 290 269 269 268 265 250 248 243 236 233 232 230
209 266 255 259 263 273 263 264 261 253 263 268 270 268 269 279 293 309 295 322 331 324 298 291 283 278 281 283 277 280 277 285 281 270 275 276 249 242 242 234 232 231 231
224 238 268 263 260 271 267 273 271 267 264 266 264 257 248 261 277 291 293 317 327 319 313 300 289 278 282 280 276 282 277 283 290 286 287 284 253 241 236 232 232 230 230
236 246 254 256 256 267 258 262 273 277 266 263 257 259 255 249 260 266 284 307 309 316 306 298 289 277 277 275 268 278 278 266 287 292 284 280 257 241 235 231 231 232 231
244 243 247 247 264 267 260 262 269 274 266 262 259 259 245 253 265 255 273 298 306 295 303 294 280 274 265 267 267 267 272 274 286 284 280 282 266 242 233 232 234 233 230
244 236 232 236 241 254 247 257 269 272 266 262 262 261 263 265 276 270 261 282 291 299 298 291 281 279 257 255 259 261 272 275 286 286 279 276 263 245 234 234 237 232 229
249 244 247 249 250 250 251 252 259 263 273 259 262 261 264 274 273 270 260 261 284 284 285 284 285 271 258 253 255 259 265 273 285 294 283 268 254 245 236 232 234 230 228
254 257 251 252 249 245 249 250 254 258 265 270 266 263 259 264 273 269 263 276 278 278 276 278 284 269 259 242 250 253 259 273 284 287 281 273 251 241 228 227 226 227 227
259 258 257 253 253 250 248 251 250 253 254 263 267 262 260 264 273 263 261 282 275 259 261 269 272 261 257 240 240 251 260 272 279 278 268 267 253 236 225 223 223 228 232
270 267 267 265 261 262 255 258 257 258 258 257 263 261 262 262 266 262 264 276 266 254 257 260 259 248 240 232 240 249 263 275 278 277 263 258 249 236 229 225 224 226 225
279 282 276 274 276 273 269 267 267 263 263 260 262 261 260 261 265 268 271 273 255 249 249 254 249 238 235 230 241 251 265 274 273 266 263 256 249 241 233 234 226 224 220
277 280 283 275 273 277 276 274 276 273 270 268 264 270 258 260 262 268 274 270 259 249 246 248 240 242 233 234 239 251 267 276 269 265 257 247 247 243 229 228 221 217 220
265 271 278 279 284 283 280 282 281 277 280 275 263 251 259 259 257 267 272 261 259 245 241 241 233 240 243 236 238 249 266 274 267 269 254 245 243 239 230 224 222 219 221
255 265 272 274 280 283 282 280 284 285 269 276 278 267 251 246 254 260 260 257 251 235 233 237 232 239 238 236 248 259 260 267 268 262 250 256 244 240 234 228 226 224 226
256 263 265 272 277 287 280 282 275 275 266 267 270 268 270 260 255 264 261 260 241 240 236 231 228 244 250 257 255 256 251 258 258 273 259 255 253 245 232 229 230 228 229
255 262 266 272 278 283 278 288 287 266 270 266 266 270 267 264 261 260 263 257 237 242 244 252 242 251 259 261 256 252 248 257 270 277 270 259 244 247 242 231 231 230 231
254 258 264 269 273 274 281 285 288 279 264 269 267 267 268 266 261 259 253 246 240 230 237 232 238 247 252 252 251 248 257 265 263 260 255 251 236 243 248 241 240 239 238
253 252 256 260 262 269 277 282 284 280 264 264 263 262 266 262 256 252 228 232 245 226 229 229 236 241 246 247 240 242 249 254 256 259 249 235 244 238 246 252 251 245 238
254 255 255 255 256 262 272 274 279 279 275 263 261 261 262 259 246 237 222 231 234 229 228 234 237 241 248 250 247 245 249 257 252 250 251 232 243 242 253 249 245 249 240
Wind_Speed_850mb
46 42 39 35 29 22 16 18 17 17 17 19 21 23 24 25 25 25 27 32 38 39 37 29 30 30 30 23 25 30 28 26 24 24 25 25 31 37 39 36 32 32 33
47 45 42 41 34 26 21 23 26 27 26 25 26 26 26 28 25 24 24 27 29 33 35 34 31 26 26 25 24 30 31 30 28 27 30 31 30 33 35 37 35 35 35
48 46 44 47 40 33 29 31 33 34 36 32 35 35 35 31 28 24 24 29 31 32 29 32 34 28 26 25 27 27 32 33 33 30 34 33 34 32 33 35 36 36 36
33 35 37 38 37 38 39 38 41 45 46 41 43 38 37 32 28 29 29 31 34 38 31 28 25 21 21 24 25 30 31 30 31 31 32 36 33 35 35 37 38 37 35
41 38 34 33 32 39 45 44 43 45 46 44 43 37 36 36 30 33 38 36 37 41 39 28 18 17 24 24 26 28 28 28 26 30 31 36 35 37 34 37 39 38 37
40 41 40 39 37 44 47 50 50 47 50 49 47 42 39 35 35 34 41 42 35 42 50 30 30 31 28 23 24 29 33 28 28 28 30 34 35 36 36 37 39 40 38
42 41 47 45 45 50 48 48 57 57 55 52 50 48 41 36 32 23 19 27 33 39 50 37 37 38 36 36 32 32 32 31 34 30 29 34 34 35 38 37 39 40 40
55 48 51 49 52 56 53 53 54 58 56 51 45 43 41 44 28 28 33 23 27 34 43 40 42 41 38 33 33 31 38 35 32 31 28 32 35 37 38 38 40 41 42
34 26 43 46 42 44 42 39 49 49 53 53 52 41 19 15 38 46 39 28 41 42 40 36 42 40 38 35 34 34 32 31 23 29 30 28 37 39 38 38 40 41 43
45 41 53 52 58 53 45 35 38 37 40 53 49 53 47 44 29 35 36 50 48 39 44 47 47 42 38 39 36 34 32 27 22 26 31 29 32 38 38 40 40 41 43
82 94 74 64 60 53 55 41 35 38 31 39 43 52 48 49 41 47 66 60 62 53 46 48 46 53 44 44 42 34 34 27 24 29 31 31 29 35 40 40 42 41 44
74 83 103 103 81 68 68 59 54 54 51 50 42 40 45 38 34 48 39 53 54 61 57 52 46 52 50 45 44 37 33 32 29 29 33 32 30 34 40 42 42 44 46
67 66 59 59 69 75 69 62 71 76 57 57 50 45 48 48 50 55 52 51 50 63 64 62 55 47 49 46 43 38 32 35 30 30 36 37 33 33 40 41 42 44 46
54 61 64 73 87 72 75 69 72 78 69 62 58 58 58 61 53 61 59 45 57 77 77 71 61 43 45 48 45 39 35 35 33 33 32 34 34 35 40 41 37 42 45
45 51 51 51 52 65 87 93 75 73 87 81 61 61 72 69 63 73 70 64 63 62 72 62 60 44 39 48 47 43 37 35 34 31 24 24 27 33 36 39 37 37 42
47 44 46 50 50 49 54 54 73 82 78 76 81 74 67 63 64 79 69 55 71 63 69 59 51 38 37 48 47 44 38 35 33 30 27 22 21 25 32 37 38 38 41
44 50 47 47 50 51 59 66 68 67 65 65 67 75 72 70 78 84 91 94 71 64 68 69 48 40 38 45 47 42 38 36 32 28 27 28 26 26 29 36 38 36 39
39 41 47 50 49 49 46 50 54 56 64 69 66 72 70 67 73 77 86 89 68 60 62 64 50 44 41 44 42 38 37 38 31 27 27 27 27 30 34 31 40 43 38
47 46 45 48 52 51 56 59 58 54 55 57 64 67 74 65 69 75 83 70 61 54 60 58 46 47 44 45 43 37 35 36 31 28 31 28 25 27 34 31 31 39 40
57 59 53 49 53 58 57 56 59 62 60 56 58 76 75 70 69 86 71 74 62 56 57 55 46 46 45 46 41 36 33 32 31 28 26 29 29 28 32 36 33 36 39
67 66 63 61 58 60 66 63 63 56 60 56 53 59 71 74 79 82 71 69 55 54 53 53 46 49 47 48 46 34 30 27 27 24 24 23 25 29 32 38 39 38 38
76 73 73 68 67 70 61 62 64 59 59 67 61 54 64 67 76 68 62 57 51 54 53 52 46 48 50 46 37 34 33 26 24 26 26 26 24 24 30 33 35 38 39
83 83 83 80 79 74 70 65 64 70 62 74 68 59 55 59 59 57 54 48 44 41 46 45 49 46 42 41 37 37 38 32 26 25 24 24 28 21 24 30 33 38 40
92 91 94 91 86 81 83 77 73 67 69 71 75 65 56 61 58 52 51 46 50 44 49 43 39 34 34 35 33 31 30 31 34 32 30 32 31 30 26 27 32 36 39
103 103 101 95 91 84 82 81 74 68 69 73 70 69 57 56 53 47 46 44 57 50 42 40 37 34 33 33 29 28 31 31 37 40 37 37 32 31 33 32 32 29 31
106 110 109 105 96 88 86 85 77 68 69 74 72 61 56 50 48 49 54 58 63 50 46 42 40 34 35 36 36 34 31 32 34 32 32 35 29 21 18 30 34 30 26
Wind_Direction_850mb
225 232 238 242 242 245 258 275 280 285 303 309 311 316 330 333 342 338 333 322 305 294 290 287 290 299 310 293 265 259 261 262 262 253 254 256 242 237 241 242 237 234 234
233 235 241 246 249 251 260 271 282 287 289 291 298 311 322 323 329 336 331 327 319 295 287 286 285 287 300 309 279 262 264 266 264 253 252 254 251 243 241 238 235 235 238
238 237 243 249 253 253 257 265 272 283 285 290 299 308 311 314 315 314 320 316 321 312 306 287 279 272 289 298 303 283 270 272 266 262 253 254 252 247 243 237 235 239 241
230 234 237 246 251 252 256 262 265 271 278 288 293 304 300 294 306 312 310 314 311 315 308 299 277 267 287 297 288 297 291 280 273 269 256 249 253 251 244 238 237 241 238
236 237 243 250 255 255 254 255 255 260 266 272 278 283 285 292 303 309 310 310 309 306 309 296 283 281 285 299 301 292 287 283 275 277 259 249 253 252 243 239 236 237 234
233 235 244 252 253 262 263 259 260 261 268 274 279 280 284 296 304 313 314 308 301 305 301 294 278 277 281 284 299 294 292 278 283 282 267 254 251 252 243 238 234 233 232
240 242 242 248 253 260 262 262 260 259 264 273 284 281 283 286 307 316 328 318 301 303 298 295 278 282 282 276 279 283 288 283 273 271 276 259 249 251 241 236 233 232 230
245 245 247 249 272 270 266 260 257 255 264 269 272 288 294 295 302 308 311 320 321 302 300 293 281 290 286 282 281 282 286 290 269 269 268 265 250 248 243 236 233 232 230
209 266 255 259 263 273 263 264 261 253 263 268 270 268 269 279 293 309 295 322 331 324 298 291 283 278 281 283 277 280 277 285 281 270 275 276 249 242 242 234 232 231 231
224 238 268 263 260 271 267 273 271 267 264 266 264 257 248 261 277 291 293 317 327 319 313 300 289 278 282 280 276 282 277 283 290 286 287 284 253 241 236 232 232 230 230
236 246 254 256 256 267 258 262 273 277 266 263 257 259 255 249 260 266 284 307 309 316 306 298 289 277 277 275 268 278 278 266 287 292 284 280 257 241 235 231 231 232 231
244 243 247 247 264 267 260 262 269 274 266 262 259 259 245 253 265 255 273 298 306 295 303 294 280 274 265 267 267 267 272 274 286 284 280 282 266 242 233 232 234 233 230
244 236 232 236 241 254 247 257 269 272 266 262 262 261 263 265 276 270 261 282 291 299 298 291 281 279 257 255 259 261 272 275 286 286 279 276 263 245 234 234 237 232 229
249 244 247 249 250 250 251 252 259 263 273 259 262 261 264 274 273 270 260 261 284 284 285 284 285 271 258 253 255 259 265 273 285 294 283 268 254 245 236 232 234 230 228
254 257 251 252 249 245 249 250 254 258 265 270 266 263 259 264 273 269 263 276 278 278 276 278 284 269 259 242 250 253 259 273 284 287 281 273 251 241 228 227 226 227 227
259 258 257 253 253 250 248 251 250 253 254 263 267 262 260 264 273 263 261 282 275 259 261 269 272 261 257 240 240 251 260 272 279 278 268 267 253 236 225 223 223 228 232
270 267 267 265 261 262 255 258 257 258 258 257 263 261 262 262 266 262 264 276 266 254 257 260 259 248 240 232 240 249 263 275 278 277 263 258 249 236 229 225 224 226 225
279 282 276 274 276 273 269 267 267 263 263 260 262 261 260 261 265 268 271 273 255 249 249 254 249 238 235 230 241 251 265 274 273 266 263 256 249 241 233 234 226 224 220
277 280 283 275 273 277 276 274 276 273 270 268 264 270 258 260 262 268 274 270 259 249 246 248 240 242 233 234 239 251 267 276 269 265 257 247 247 243 229 228 221 217 220
265 271 278 279 284 283 280 282 281 277 280 275 263 251 259 259 257 267 272 261 259 245 241 241 233 240 243 236 238 249 266 274 267 269 254 245 243 239 230 224 222 219 221
255 265 272 274 280 283 282 280 284 285 269 276 278 267 251 246 254 260 260 257 251 235 233 237 232 239 238 236 248 259 260 267 268 262 250 256 244 240 234 228 226 224 226
256 263 265 272 277 287 280 282 275 275 266 267 270 268 270 260 255 264 261 260 241 240 236 231 228 244 250 257 255 256 251 258 258 273 259 255 253 245 232 229 230 228 229
255 262 266 272 278 283 278 288 287 266 270 266 266 270 267 264 261 260 263 257 237 242 244 252 242 251 259 261 256 252 248 257 270 277 270 259 244 247 242 231 231 230 231
254 258 264 269 273 274 281 285 288 279 264 269 267 267 268 266 261 259 253 246 240 230 237 232 238 247 252 252 251 248 257 265 263 260 255 251 236 243 248 241 240 239 238
253 252 256 260 262 269 277 282 284 280 264 264 263 262 266 262 256 252 228 232 245 226 229 229 236 241 246 247 240 242 249 254 256 259 249 235 244 238 246 252 251 245 238
254 255 255 255 256 262 272 274 279 279 275 263 261 261 262 259 246 237 222 231 234 229 228 234 237 241 248 250 247 245 249 257 252 250 251 232 243 242 253 249 245 249 240